Location: Unnamed
(48.2382°N, 16.3826°E)
Time: 10:14:18
(UTC+02:00)

Falcon 9 debris - Pass Details

Date: 16 August 2020
Orbit: 426 x 434 km, 53.0° (Epoch: 23 September)

Event Time Altitude Azimuth Distance (km) Brightness Sun altitude
Rises 20:58:22 0° 272° (W) 2,406 ? -8.7°
Reaches altitude 10° 21:00:33 10° 280° (W) 1,540 ? -9.0°
Maximum altitude 21:03:50 39° 351° (N) 670 ? -9.4°
Drops below altitude 10° 21:07:07 10° 62° (ENE) 1,545 ? -9.9°
Enters shadow 21:08:43 - 69° (ENE) 2,168 ? -10.1°
